GW4611 Weather Reports


time (UTC)temp
C
wind
direction
speed
KPH
gust
KPH
rain 1hr
cm
rain 24hr
cm
rain mn
cm
humidity
%
barometer
mb
20260503190431 15 1 8.0 16.1 0.00 0.00 0.00 30 1017.6
20260503185927 15 40 6.4 14.5 0.00 0.00 0.00 29 1017.6
20260503185424 15 275 6.4 12.9 0.00 0.00 0.00 27 1018.0
20260503184923 15 282 6.4 16.1 0.00 0.00 0.00 32 1018.1
20260503184420 16 19 6.4 11.3 0.00 0.00 0.00 32 1018.3
20260503183916 16 2 8.0 12.9 0.00 0.00 0.00 35 1018.2
20260503183413 16 359 8.0 16.1 0.00 0.00 0.00 31 1018.4
20260503182910 15 315 6.4 9.7 0.00 0.00 0.00 39 1018.2
20260503182409 16 24 12.9 16.1 0.00 0.00 0.00 30 1018.2
20260503181906 15 321 6.4 9.7 0.00 0.00 0.00 29 1018.1
20260503181403 16 337 4.8 9.7 0.00 0.00 0.00 32 1018.3
20260503180859 15 233 3.2 11.3 0.00 0.00 0.00 29 1018.3
20260503180357 15 175 0.0 11.3 0.00 0.00 0.00 28 1018.4
20260503175853 15 275 12.9 22.5 0.00 0.00 0.00 32 1018.6
20260503175351 15 8 1.6 6.4 0.00 0.00 0.00 27 1018.5
20260503174847 14 325 3.2 12.9 0.00 0.00 0.00 29 1018.4
20260503174345 14 280 14.5 22.5 0.00 0.00 0.00 30 1018.3
20260503173845 13 104 3.2 4.8 0.00 0.00 0.00 32 1018.5
20260503173342 14 47 4.8 14.5 0.00 0.00 0.00 31 1018.7
20260503172838 15 302 3.2 14.5 0.00 0.00 0.00 35 1018.7
20260503172336 14 320 4.8 9.7 0.00 0.00 0.00 37 1018.7
20260503171832 14 26 9.7 16.1 0.00 0.00 0.00 28 1018.6
20260503171329 14 307 6.4 11.3 0.00 0.00 0.00 32 1018.7
20260503170826 14 307 6.4 12.9 0.00 0.00 0.00 33 1018.9
20260503170323 14 158 6.4 11.3 0.00 0.00 0.00 34 1018.9
20260503150715 10 291 6.4 9.7 0.00 0.00 0.00 42 1020.4
20260503150211 10 192 9.7 12.9 0.00 0.00 0.00 41 1020.3
20260503140136 9 35 9.7 16.1 0.00 0.00 0.00 44 1020.5
20260503131105 7 3 6.4 16.1 0.00 0.00 0.00 53 1020.2
20260503130602 7 283 8.0 14.5 0.00 0.00 0.00 51 1020.5
20260503110452 0 212 3.2 4.8 0.00 0.00 0.00 90 1019.6
20260503090338 2 2 0.0 0.0 0.00 0.00 0.00 83 1018.3
20260503081306 3 1 0.0 0.0 0.00 0.00 0.00 80 1018.1
20260503080802 3 1 0.0 0.0 0.00 0.00 0.00 78 1018.2
20260503080259 3 1 0.0 0.0 0.00 0.00 0.00 79 1017.6
20260503072736 3 1 0.0 1.6 0.00 0.00 0.00 80 1017.6
20260503072233 3 2 0.0 0.0 0.00 0.00 0.00 80 1017.6
20260503071729 3 2 0.0 0.0 0.00 0.00 0.00 80 1017.5
20260503071226 3 2 0.0 0.0 0.00 0.00 0.00 79 1017.6
20260503070722 3 2 0.0 0.0 0.00 0.00 0.00 79 1017.5
20260503070221 3 352 0.0 1.6 0.00 0.00 0.00 77 1017.3
20260503060145 4 340 0.0 0.0 0.00 0.00 0.00 73 1017.5
20260503054632 4 314 0.0 3.2 0.00 0.00 0.00 71 1017.4
20260503054129 5 310 3.2 4.8 0.00 0.00 0.00 71 1017.5
20260503053627 5 329 3.2 4.8 0.00 0.00 0.00 70 1017.4
20260503053125 5 332 0.0 0.0 0.00 0.00 0.00 71 1017.4
20260503052621 5 21 1.6 9.7 0.00 0.00 0.00 69 1017.4
20260503052118 5 341 1.6 3.2 0.00 0.00 0.00 70 1017.3
20260503051613 5 326 3.2 6.4 0.00 0.00 0.00 70 1017.4
20260503051111 5 333 0.0 0.0 0.00 0.00 0.00 72 1017.4
20260503050607 5 342 0.0 0.0 0.00 0.00 0.00 72 1017.4
20260503050104 4 343 0.0 1.6 0.00 0.00 0.00 71 1017.5
20260503045601 4 326 0.0 1.6 0.00 0.00 0.00 71 1017.6
20260503045059 5 317 1.6 3.2 0.00 0.00 0.00 71 1017.6
20260503044555 5 26 0.0 3.2 0.00 0.00 0.00 69 1017.5
20260503044053 5 332 1.6 4.8 0.00 0.00 0.00 68 1017.5
20260503043549 5 10 1.6 3.2 0.00 0.00 0.00 68 1017.4
20260503043046 5 16 1.6 3.2 0.00 0.00 0.00 68 1017.3
20260503042542 5 358 0.0 4.8 0.00 0.00 0.00 68 1017.4
20260503042038 5 5 0.0 4.8 0.00 0.00 0.00 67 1017.5
20260503041535 6 16 3.2 4.8 0.00 0.00 0.00 66 1017.3
20260503041033 6 6 1.6 4.8 0.00 0.00 0.00 66 1017.6
20260503040530 6 332 4.8 6.4 0.00 0.00 0.00 66 1017.4
20260503040028 6 20 1.6 6.4 0.00 0.00 0.00 65 1017.5
20260503035524 6 23 3.2 4.8 0.00 0.00 0.00 65 1017.4
20260503035022 6 343 4.8 12.9 0.00 0.00 0.00 65 1017.6
20260503034519 6 342 4.8 4.8 0.00 0.00 0.00 65 1017.5
20260503034016 6 12 3.2 6.4 0.00 0.00 0.00 65 1017.4
20260503033513 6 329 3.2 6.4 0.00 0.00 0.00 65 1017.3
20260503033011 6 339 3.2 6.4 0.00 0.00 0.00 65 1017.5
20260503032509 6 22 3.2 6.4 0.00 0.00 0.00 64 1017.6
20260503032007 6 24 6.4 11.3 0.00 0.00 0.00 65 1017.4
20260503031505 6 353 4.8 11.3 0.00 0.00 0.00 65 1017.4
20260503031001 6 319 3.2 4.8 0.00 0.00 0.00 68 1017.3
20260503030457 6 108 3.2 3.2 0.00 0.00 0.00 69 1017.0
20260503025954 6 162 0.0 0.0 0.00 0.00 0.00 69 1017.5
20260503025451 6 134 0.0 1.6 0.00 0.00 0.00 71 1017.2
20260503024949 6 98 0.0 0.0 0.00 0.00 0.00 68 1017.4
20260503024445 6 98 0.0 0.0 0.00 0.00 0.00 66 1017.5
20260503023942 6 101 0.0 0.0 0.00 0.00 0.00 67 1017.3
20260503023439 6 338 0.0 0.0 0.00 0.00 0.00 65 1017.4
20260503022936 6 317 1.6 3.2 0.00 0.00 0.00 65 1017.3
20260503022431 7 358 0.0 0.0 0.00 0.00 0.00 65 1017.4
20260503021927 7 11 1.6 3.2 0.00 0.00 0.00 63 1017.6
20260503021423 7 15 1.6 9.7 0.00 0.00 0.00 63 1017.4
20260503020921 7 350 1.6 3.2 0.00 0.00 0.00 62 1017.5
20260503020419 7 18 4.8 9.7 0.00 0.00 0.00 61 1017.3
20260503015915 7 328 4.8 11.3 0.00 0.00 0.00 60 1017.1
20260503015412 8 36 3.2 6.4 0.00 0.00 0.00 58 1017.0
20260503014908 8 355 6.4 11.3 0.00 0.00 0.00 57 1017.0
20260503014405 8 32 4.8 9.7 0.00 0.00 0.00 58 1016.9
20260503013903 8 13 3.2 6.4 0.00 0.00 0.00 57 1017.0
20260503013400 8 48 4.8 12.9 0.00 0.00 0.00 56 1016.9
20260503012857 8 287 3.2 9.7 0.00 0.00 0.00 57 1017.0
20260503012355 8 24 3.2 3.2 0.00 0.00 0.00 57 1016.7
20260503011851 8 341 3.2 4.8 0.00 0.00 0.00 56 1016.6
20260503011348 8 27 3.2 11.3 0.00 0.00 0.00 55 1016.6
20260503010844 8 34 0.0 4.8 0.00 0.00 0.00 55 1016.7
20260503010342 8 359 3.2 12.9 0.00 0.00 0.00 53 1016.3
20260503005838 8 26 6.4 9.7 0.00 0.00 0.00 51 1016.3
20260503005336 8 18 3.2 12.9 0.00 0.00 0.00 48 1016.0
20260503004832 9 332 4.8 6.4 0.00 0.00 0.00 47 1015.9
20260503004330 9 329 0.0 3.2 0.00 0.00 0.00 47 1015.7
20260503003827 9 325 3.2 6.4 0.00 0.00 0.00 46 1015.8
20260503003324 9 332 0.0 1.6 0.00 0.00 0.00 47 1015.9
20260503002821 10 3 1.6 3.2 0.00 0.00 0.00 45 1015.6
20260503002318 10 333 4.8 12.9 0.00 0.00 0.00 44 1015.7
20260503001814 10 349 3.2 4.8 0.00 0.00 0.00 46 1015.6
20260503001311 10 19 1.6 6.4 0.00 0.00 0.00 45 1015.6
20260503000808 10 31 1.6 3.2 0.00 0.00 0.00 46 1015.5
20260503000306 10 290 1.6 3.2 0.00 0.00 0.00 44 1015.6
20260502235802 10 352 0.0 1.6 0.00 0.00 0.00 45 1015.3
20260502235300 10 278 8.0 9.7 0.00 0.00 0.00 42 1015.3
20260502234756 10 296 0.0 1.6 0.00 0.00 0.00 43 1015.3
20260502234253 10 283 1.6 9.7 0.00 0.00 0.00 44 1015.0
20260502233749 10 318 6.4 9.7 0.00 0.00 0.00 43 1015.2
20260502233241 10 310 0.0 1.6 0.00 0.00 0.00 47 1014.9
20260502232737 10 329 1.6 3.2 0.00 0.00 0.00 46 1015.0
20260502232234 11 325 1.6 3.2 0.00 0.00 0.00 45 1015.0
20260502231731 11 297 0.0 4.8 0.00 0.00 0.00 44 1014.9
20260502231228 11 335 0.0 3.2 0.00 0.00 0.00 45 1014.9
20260502230726 11 327 1.6 3.2 0.00 0.00 0.00 45 1014.9
20260502230219 11 325 4.8 4.8 0.00 0.00 0.00 42 1015.0
20260502225715 11 329 3.2 9.7 0.00 0.00 0.00 42 1014.7
20260502225212 11 316 1.6 4.8 0.00 0.00 0.00 43 1015.0
20260502224708 11 21 0.0 4.8 0.00 0.00 0.00 42 1014.7
20260502224205 11 310 0.0 6.4 0.00 0.00 0.00 44 1014.9
20260502223703 11 321 4.8 6.4 0.00 0.00 0.00 41 1014.7
20260502223201 11 317 1.6 4.8 0.00 0.00 0.00 41 1014.7
20260502222658 11 336 3.2 4.8 0.00 0.00 0.00 41 1014.6
20260502222155 11 323 6.4 11.3 0.00 0.00 0.00 40 1014.6
20260502221650 11 22 3.2 9.7 0.00 0.00 0.00 39 1014.8
20260502221148 11 358 4.8 9.7 0.00 0.00 0.00 39 1014.5
20260502220643 12 28 6.4 6.4 0.00 0.00 0.00 40 1014.7
20260502220140 12 319 3.2 6.4 0.00 0.00 0.00 39 1014.7
20260502215637 12 234 3.2 4.8 0.00 0.00 0.00 35 1014.5
20260502215134 13 307 9.7 11.3 0.00 0.00 0.00 35 1014.6
20260502214631 13 228 6.4 12.9 0.00 0.00 0.00 36 1014.2
20260502214127 12 298 1.6 9.7 0.00 0.00 0.00 36 1014.6
20260502213625 12 342 3.2 4.8 0.00 0.00 0.00 38 1014.4
20260502213122 12 278 3.2 4.8 0.00 0.00 0.00 36 1014.5
20260502212621 12 255 0.0 9.7 0.00 0.00 0.00 40 1014.5
20260502212119 12 296 4.8 6.4 0.00 0.00 0.00 37 1014.6
20260502211614 12 203 9.7 11.3 0.00 0.00 0.00 37 1014.4
20260502211111 12 331 4.8 6.4 0.00 0.00 0.00 38 1014.6
20260502210609 12 284 4.8 9.7 0.00 0.00 0.00 39 1014.6
20260502210105 12 325 3.2 11.3 0.00 0.00 0.00 38 1014.6
20260502205602 12 201 8.0 14.5 0.00 0.00 0.00 38 1014.6
20260502205059 12 266 4.8 11.3 0.00 0.00 0.00 36 1014.6
20260502204555 12 67 0.0 6.4 0.00 0.00 0.00 42 1014.6
20260502204048 12 271 6.4 12.9 0.00 0.00 0.00 38 1014.5
20260502203545 12 208 17.7 17.7 0.00 0.00 0.00 38 1014.7
20260502203042 12 229 9.7 11.3 0.00 0.00 0.00 39 1014.6
20260502202538 12 257 8.0 14.5 0.00 0.00 0.00 40 1014.6
20260502202037 12 300 3.2 4.8 0.00 0.00 0.00 42 1014.6
20260502201532 12 4 4.8 9.7 0.00 0.00 0.00 39 1014.5
20260502201029 12 207 4.8 11.3 0.00 0.00 0.00 39 1014.8
20260502200525 12 253 0.0 6.4 0.00 0.00 0.00 38 1014.7
20260502200023 12 219 4.8 4.8 0.00 0.00 0.00 40 1014.8
20260502195521 12 277 6.4 9.7 0.00 0.00 0.00 39 1014.7
20260502195015 12 306 4.8 9.7 0.00 0.00 0.00 40 1014.8
20260502194512 12 280 9.7 12.9 0.00 0.00 0.00 38 1014.7
20260502194008 12 197 9.7 14.5 0.00 0.00 0.00 36 1014.9
20260502193506 12 214 8.0 11.3 0.00 0.00 0.00 37 1015.1
20260502193001 13 231 6.4 9.7 0.00 0.00 0.00 37 1015.2
20260502192458 12 261 1.6 3.2 0.00 0.00 0.00 41 1015.0
20260502191955 12 318 4.8 4.8 0.00 0.00 0.00 41 1015.3
20260502191452 12 322 1.6 12.9 0.00 0.00 0.00 47 1015.3
20260502190950 12 32 9.7 14.5 0.00 0.00 0.00 43 1015.4